Main page
METAR-TAF:

METAR-TAF

Airports :

Fayette Regional Air Center

La Grange, Texas, United States

latitude: 29-54-29N, longitude: 096-57-00W, elevation: 325 ft

Current weather observation

The report was made 20 minutes ago, at 14:15 UTC
Wind 9 mph from the Southeast
Temperature 82°F
Humidity 94%
Pressure 29.83 in. Hg
Visibility: 9 miles
Broken clouds at a height of 1500 ft
Broken clouds at a height of 2100 ft

METAR: K3T5 171415Z AUTO 13008KT 9SM BKN015 BKN021 28/27 A2983 RMK AO2 CIG 013V019 T02840273 $

Time: 09:35 (14:35 UTC)


TAF: missing

Weather observations and forecasts of more than 4000 airports (METAR and TAF reports).

The available stations are represented by yellow and red dots on the map.

Hover mouse over dot to see the name of the station.

Then click to see weather observations and forecasts.

To change the map : click on the green buttons with a black cross to zoom in, on the green button with a dash to zoom out, or on the green arrows for adjacent maps.


METAR-TAF: